Regional Weather Roundup
Issued by NWS

Home | Current Version | Previous Version | Graphics & Text | Print | Product List | Glossary On
Versions: 1 2 3 4 5 6 7 8 9 10 11 12 13 14 15 16 17 18 19 20 21 22 23 24 25 26 27 28 29 30 31 32 33 34 35 36 37 38 39 40 41 42 43 44 45 46 47 48 49 50
757
ASUS45 KCYS 171310
RWRWY

WYOMING REGIONAL WEATHER ROUNDUP
NATIONAL WEATHER SERVICE CHEYENNE WY
600 AM MST FRI NOV 17 2017

NOTE:  "FAIR" INDICATES FEW OR NO CLOUDS BELOW 12,000 FEET
WITH NO SIGNIFICANT WEATHER AND/OR OBSTRUCTIONS TO VISIBILITY.

WYZ001-171400-
YELLOWSTONE NATIONAL PARK

CITY           SKY/WX    TMP DP  RH WIND       PRES   REMARKS
LK YELLOWSTONE   N/A     27  25  92 CALM      29.64R
W YELLOWSTONE  NOT AVBL

$$
WYZ002>013-054>058-071-098>099-171400-
NORTHERN WYOMING

CITY           SKY/WX    TMP DP  RH WIND       PRES   REMARKS
JACKSON        MOCLDY    31  28  89 S10       29.67R WCI  22
CODY           CLOUDY    33  30  88 N7        29.64R WCI  27
GREYBULL       CLOUDY    36  33  89 W10       29.62R WCI  28
WORLAND        FAIR      33  33 100 CALM      29.62R
SHERIDAN       LGT SNOW  33  33 100 E3        29.66S FOG
BUFFALO        LGT SNOW  33  30  88 SE9       29.64R VSB 3/4 WCI  25
GILLETTE       CLOUDY    33  32  96 CALM      29.64S
HULETT         CLOUDY    34  32  93 CALM      29.64F FOG
NEWCASTLE      PTSUNNY   36  32  87 SE12      29.65F WCI  27

$$
WYZ014>020-022>026-101>103-171400-
CENTRAL WYOMING

CITY           SKY/WX    TMP DP  RH WIND       PRES   REMARKS
BIG PINEY      FLURRIES  32  32 100 NE5       29.71F WCI  27
PINEDALE       CLOUDY    32  30  93 W8        29.71F WCI  25
DUBOIS         FAIR      32  21  64 W22G28    29.63F WCI  19
LANDER         MOCLDY    40  32  73 SW9       29.64R WCI  34
RIVERTON       CLOUDY    37  33  85 NW9       29.63R WCI  30
CASPER         CLOUDY    34  32  92 CALM      29.64F
DOUGLAS        LGT RAIN  42  41  96 W10       29.66R

$$
WYZ021-027>030-104>119-171400-
SOUTHERN WYOMING

CITY           SKY/WX    TMP DP  RH WIND       PRES   REMARKS
EVANSTON       LGT SNOW  32  32 100 N7        29.73F VSB 3/4 WCI  26
FORT BRIDGER   LGT SNOW  33  33 100 NW6       29.76F VSB 1   WCI  28
ROCK SPRINGS   LGT SNOW  32  31  96 W9        29.76R FOG     WCI  24
DIXON          LGT RAIN  41  36  81 SE6       29.77F
RAWLINS        LGT RAIN  39  36  89 SW21G32   29.70F WCI  29
SARATOGA       LGT RAIN  36  36 100 SW7       29.73F WCI  30
LARAMIE        MOCLDY    42  31  64 W7        29.69S
CHEYENNE       FAIR      52  29  41 W20G29    29.66S
TORRINGTON     CLOUDY    41  29  62 N18       29.65R
PINE BLUFFS    FAIR      36  27  69 MISG      29.64S

$$




USA.gov is the U.S. government's official web portal to all federal, state and local government web resources and services.